Regional Weather Roundup
Issued by NWS

Home | Current Version | Previous Version | Graphics & Text | Print | Product List | Glossary On
Versions: 1 2 3 4 5 6 7 8 9 10 11 12 13 14 15 16 17 18 19 20 21 22 23 24 25 26 27 28 29 30 31 32 33 34 35 36 37 38 39 40 41 42 43 44 45 46 47 48 49 50
000
ASUS44 KMEG 021510
RWRTN
TENNESSEE HOURLY STATE WEATHER ROUNDUP
NATIONAL WEATHER SERVICE MEMPHIS TN
1000 AM CDT THU OCT 02 2014

TNZ002-004-019-021-049-052-054-088>092-021600-
WEST TENNESSEE

CITY           SKY/WX    TMP DP  RH WIND       PRES   REMARKS
MEMPHIS INTL   PTSUNNY   79  71  76 S7        29.95F
NWS MEMPHIS      N/A     76 N/A N/A MISG        N/A
JACKSON        CLOUDY    79  70  73 S9        29.99R
DYERSBURG      FAIR      75  61  60 S6        29.96F
UNION CITY     MOSUNNY   75  68  78 S8        29.95F
PARIS          MOSUNNY   75  64  69 S7        29.99F
HUNTINGDON     FAIR      76  66  71 S7        29.98F
LEXINGTON      SUNNY     79  66  65 S7        30.00S
SAVANNAH       SUNNY     81  66  61 S7        30.01F
$$

TNZ008-025-027-028-033-062-065-066-021600-
NORTH MIDDLE TENNESSEE

CITY           SKY/WX    TMP DP  RH WIND       PRES   REMARKS
NASHVILLE      FAIR      79  64  60 S10       30.05F
PORTLAND       FAIR      75  63  64 S8        30.03F
CLARKSVILLE    PTSUNNY   75  64  68 S6        30.00F
LEBANON        FAIR      78  62  57 S13       30.04F
SMYRNA         FAIR      78  64  61 SW7       30.06F
MURFREESBORO   FAIR      79  62  55 SW9       30.05F
COOKEVILLE     SUNNY     79  64  61 SW7       30.09S
LIVINGSTON       N/A     75  61  62 SW8       30.10S
GALLATIN       FAIR      74  64  70 S7        30.06F
CROSSVILLE     FAIR      77  61  57 S6        30.14S
$$

TNZ061-075-076-078-094-096-097-021600-
SOUTH MIDDLE TENNESSEE

CITY           SKY/WX    TMP DP  RH WIND       PRES   REMARKS
LEWISBURG      PTSUNNY   75  64  68 S6        30.06S
FAYETTEVILLE   SUNNY     75  63  64 S8        30.08F
TULLAHOMA      MOSUNNY   75  63  64 S7        30.10S
WINCHESTER     SUNNY     79  64  61 S9        30.09F
MCMINNVILLE    SUNNY     79  68  69 CALM      30.09S
COLUMBIA       MOSUNNY   79  72  78 S5        30.03F
SHELBYVILLE    CLOUDY    79  64  61 S9        30.08F
$$

TNZ017-018-042-046-047-021600-
NORTHEAST TENNESSEE

CITY           SKY/WX    TMP DP  RH WIND       PRES   REMARKS
TRI CITIES     FAIR      67  55  65 CALM      30.16S
ELIZABETHTON   SUNNY     70  57  64 CALM      30.16S
$$

TNZ012-013-036-069-073-074-021600-
CENTRAL EAST TENNESSEE

CITY           SKY/WX    TMP DP  RH WIND       PRES   REMARKS
KNOXVILLE      FAIR      71  58  63 CALM      30.12F
OAK RIDGE      FAIR      71  61  70 CALM      30.14F
GATLINBURG     SUNNY     70  57  64 CALM      30.13S
MORRISTOWN     SUNNY     68  57  68 CALM      30.15S
$$

TNZ083-085-099-021600-
SOUTHEAST TENNESSEE

CITY           SKY/WX    TMP DP  RH WIND       PRES   REMARKS
CHATTANOOGA    FAIR      74  61  63 VRB3      30.12S
$$

SKY/WX REPORTED AS FAIR MEANS FEW OR NO CLOUDS BELOW
12 THOUSAND FEET.




USA.gov is the U.S. government's official web portal to all federal, state and local government web resources and services.